Weather History for Falls City, NE

Change the Weather History Date:

Friday, April 4, 2014

  Actual Average Record
Temperature  
Mean Temperature 40 °F -  
Max Temperature 46 °F 59 °F 81 °F (1967)
Min Temperature 30 °F 34 °F 21 °F (1990)
Degree Days  
Heating Degree Days 24    
Moisture  
Dew Point 30 °F    
Average Humidity 70    
Maximum Humidity 100    
Minimum Humidity 49    
Precipitation  
Precipitation 0.00 in - - ()
Sea Level Pressure  
Sea Level Pressure 30.04 in    
Wind  
Wind Speed 17 mph (NW)    
Max Wind Speed 25 mph    
Max Gust Speed 41 mph    
Visibility 10 miles    
Events      
Averages and records for this station are not official NWS values.
T = Trace of Precipitation, MM = Missing Value Source: NWS Daily Summary

Daily Weather History Graph

Daily Weather History Graph

Search for Another Location

Airport:

Trip Planner

Search our weather history database for the weather conditions in past years. The results will help you decide how hot, cold, wet, or windy it might be!

Date:

Astronomy

Apr. 04, 2014 Rise Set
Actual Time 7:01 AM CDT 7:49 PM CDT
Civil Twilight 6:34 AM CDT 8:17 PM CDT
Nautical Twilight 6:01 AM CDT 8:49 PM CDT
Astronomical Twilight 5:27 AM CDT 9:23 PM CDT
Moon 10:19 AM CDT (4/4) 12:09 AM CDT (4/4)
Length of Visible Light 13h 43m
Length of Day
12h 48m
Waxing Crescent, 25% of the Moon is Illuminated
Apr 4
Waxing Crescent
Apr 7
First Quarter
Apr 15
Full
Apr 22
Last Quarter
Apr 29
New

Hourly Weather History & Observations

Time (CDT) Temp. Windchill Dew Point Humidity Pressure Visibility Wind Dir Wind Speed Gust Speed Precip Events Conditions
12:53 AM 36.0 °F 25.6 °F 36.0 °F 100% 29.82 in 10.0 mi NW 18.4 mph 31.1 mph 0.00 in   Overcast
1:53 AM 36.0 °F 26.0 °F 33.1 °F 89% 29.84 in 10.0 mi NW 17.3 mph 28.8 mph N/A   Overcast
2:53 AM 36.0 °F 23.9 °F 32.0 °F 86% 29.86 in 10.0 mi NW 25.3 mph 34.5 mph N/A   Overcast
3:53 AM 36.0 °F 24.4 °F 30.9 °F 82% 29.88 in 10.0 mi NW 23.0 mph 31.1 mph N/A   Overcast
4:53 AM 36.0 °F 25.0 °F 30.9 °F 82% 29.91 in 10.0 mi NW 20.7 mph 32.2 mph N/A   Overcast
5:53 AM 37.0 °F 27.0 °F 30.9 °F 79% 29.93 in 10.0 mi NW 18.4 mph 33.4 mph N/A   Overcast
6:53 AM 35.6 °F 24.2 °F 28.4 °F 75% 29.95 in 10.0 mi NW 21.9 mph 41.4 mph N/A   Overcast
7:53 AM 36.0 °F 26.7 °F 30.9 °F 82% 30.00 in 10.0 mi NW 15.0 mph - N/A   Overcast
8:53 AM 37.0 °F 26.4 °F 30.0 °F 76% 30.03 in 10.0 mi NW 20.7 mph 28.8 mph N/A   Overcast
9:53 AM 37.9 °F 27.6 °F 30.0 °F 73% 30.06 in 10.0 mi NW 20.7 mph 27.6 mph N/A   Overcast
10:53 AM 39.9 °F 30.0 °F 30.0 °F 68% 30.07 in 10.0 mi NNW 21.9 mph 27.6 mph N/A   Overcast
11:34 AM 42.1 °F 33.3 °F 30.9 °F 65% 30.07 in 10.0 mi NW 19.6 mph 28.8 mph N/A   Overcast
11:53 AM 41.0 °F 31.4 °F 30.0 °F 65% 30.09 in 10.0 mi NW 21.9 mph 29.9 mph N/A   Overcast
12:53 PM 43.0 °F 34.2 °F 28.9 °F 58% 30.10 in 10.0 mi NW 20.7 mph 28.8 mph N/A   Overcast
1:53 PM 43.0 °F 34.8 °F 28.0 °F 56% 30.11 in 10.0 mi NNW 18.4 mph - N/A   Overcast
2:53 PM 45.0 °F 37.1 °F 28.0 °F 52% 30.10 in 10.0 mi NW 19.6 mph 25.3 mph N/A   Overcast
3:53 PM 45.0 °F 39.3 °F 27.0 °F 49% 30.10 in 10.0 mi NNW 11.5 mph - N/A   Overcast
4:53 PM 45.0 °F 39.7 °F 28.9 °F 53% 30.11 in 10.0 mi NNW 10.4 mph - N/A   Overcast
5:53 PM 45.0 °F 39.3 °F 27.0 °F 49% 30.11 in 10.0 mi NW 11.5 mph - N/A   Overcast
6:53 PM 46.0 °F 41.4 °F 28.0 °F 50% 30.13 in 10.0 mi North 9.2 mph - N/A   Overcast
7:53 PM 41.0 °F 37.1 °F 28.0 °F 60% 30.13 in 10.0 mi North 5.8 mph - N/A   Clear
8:53 PM 37.9 °F - 28.0 °F 68% 30.16 in 10.0 mi Calm Calm - N/A   Clear
9:53 PM 35.1 °F - 28.9 °F 78% 30.17 in 10.0 mi Calm Calm - N/A   Clear
10:53 PM 35.1 °F - 28.0 °F 76% 30.18 in 10.0 mi Calm Calm - N/A   Clear
11:53 PM 30.9 °F - 26.1 °F 82% 30.19 in 10.0 mi Calm Calm - N/A   Clear